Regional Weather Roundup
Issued by NWS

Home | Current Version | Previous Version | Graphics & Text | Print | Product List | Glossary Off
Versions: 1 2 3 4 5 6 7 8 9 10 11 12 13 14 15 16 17 18 19 20 21 22 23 24 25 26 27 28 29 30 31 32 33 34 35 36 37 38 39 40 41 42 43 44 45 46 47 48 49 50

000
ASUS43 KMKX 232111
RWRWI

WISCONSIN REGIONAL WEATHER ROUNDUP
NATIONAL WEATHER SERVICE MILWAUKEE/SULLIVAN WI
400 PM CDT TUE MAY 23 2017

NOTE: "FAIR" INDICATES FEW OR NO CLOUDS BELOW 12,000 FEET WITH NO
SIGNIFICANT WEATHER AND/OR OBSTRUCTIONS TO VISIBILITY.

WIZ001-002-006>008-014>016-023>028-232200-
NORTHWEST WISCONSIN

CITY           SKY/WX    TMP DP  RH WIND       PRES   REMARKS
SUPERIOR ARPT  NOT AVBL
ASHLAND        CLOUDY    50  45  83 NE10      29.88S
HAYWARD        CLOUDY    57  43  59 NE9       29.82S
SIREN          CLOUDY    59  43  54 NE6       29.82F
CUMBERLAND     CLOUDY    55  43  62 NE12      29.81S
RICE LAKE      CLOUDY    55  47  73 N9        29.82S
CHETEK         CLOUDY    56  47  72 N5        29.80S
LADYSMITH      CLOUDY    58  46  65 N5        29.81F
EAU CLAIRE     CLOUDY    57  45  64 N10       29.77R
MENOMONIE      CLOUDY    56  46  69 N13       29.79S
NEW RICHMOND   CLOUDY    53  47  78 E10       29.81S
OSCEOLA        CLOUDY    61  44  53 NE9G18    29.83S
$$

WIZ003>005-009-010-017-018-232200-
NORTH CENTRAL WISCONSIN

CITY           SKY/WX    TMP DP  RH WIND       PRES   REMARKS
MANITOWISH WTR CLOUDY    54  46  74 NE5       29.81S
ARBOR VITAE    CLOUDY    57  47  68 NE6       29.81S
WOODRUFF       CLOUDY    57  47  68 NE6       29.81S
RHINELANDER    CLOUDY    58  44  60 NE7       29.79F
EAGLE RIVER    CLOUDY    56  41  58 N7        29.80S
LAND O LAKES   CLOUDY    55  44  66 N7        29.83S
PHILLIPS       CLOUDY    55  42  62 E6        29.80S
TOMAHAWK       CLOUDY    56  45  64 N6        29.79S
MEDFORD        CLOUDY    55  45  69 NE10      29.77S
MERRILL        CLOUDY    58  46  64 E5        29.78S
$$

WIZ029-030-035-036-043>047-232200-
CENTRAL WISCONSIN

CITY           SKY/WX    TMP DP  RH WIND       PRES   REMARKS
WAUSAU         CLOUDY    57  43  59 E10       29.75F
MOSINEE        CLOUDY    57  46  67 E16       29.77S
MARSHFIELD     CLOUDY    58  45  62 NE14      29.74S
STEVENS POINT  CLOUDY    56  45  67 NE15      29.76S
WAUPACA        CLOUDY    57  47  71 NE8       29.76F
WAUTOMA        CLOUDY    56  49  77 E14         N/A
WISC RAPIDS    CLOUDY    58  46  64 E12G22    29.75S
CAMP DOUGLAS   TSTM      55  54  94 NE9       29.70F
$$

WIZ011>013-019>022-031-037>040-048>050-232200-
NORTHEAST WISCONSIN

CITY           SKY/WX    TMP DP  RH WIND       PRES   REMARKS
ANTIGO         CLOUDY    55  45  70 NE13      29.79S
SHAWANO        CLOUDY    56  48  75 E10       29.79S
OCONTO         CLOUDY    52  44  74 NE8       29.79S
STURGEON BAY   CLOUDY    53  44  71 NE10      29.79F
GREEN BAY      HVY RAIN  52  51  97 NE14      29.79R FOG
MANITOWOC      RAIN      48  45  89 N6        29.77F
APPLETON       LGT RAIN  52  50  93 NE15G21   29.75S
CLINTONVILLE   CLOUDY    54  45  71 NE10      29.78S
OSHKOSH        CLOUDY    53  50  89 NE13      29.74R
$$

WIZ032>034-041-042-053>061-232200-
SOUTHWEST WISCONSIN

CITY           SKY/WX    TMP DP  RH WIND       PRES   REMARKS
LA CROSSE      CLOUDY    60  51  72 N12       29.72S
SPARTA         LGT RAIN  54  53  98 N6        29.72S
VIROQUA        CLOUDY    54  53  97 MISG      29.72R
BOSCOBEL       CLOUDY    62  52  69 NW9       29.70S
PRAIRIE DU CHI CLOUDY    60  49  66 NW8G20    29.71S
PLATTEVILLE    CLOUDY    59  53  79 SW5       29.71F
$$

WIZ056-057-062-063-064-067-068-232200-
SOUTH CENTRAL WISCONSIN

CITY           SKY/WX    TMP DP  RH WIND       PRES   REMARKS
REEDSBURG      CLOUDY    62  51  67 SE5       29.69S
BARABOO/DELLS  CLOUDY    61  50  66 SE6       29.70S
LONE ROCK      CLOUDY    62  52  69 S7        29.69F
MINERAL POINT  PTSUNNY   61  54  77 SW6       29.71F
MADISON        CLOUDY    62  50  64 VRB5      29.69F THUNDER
MIDDLETON      CLOUDY    63  52  68 W3        29.70F
WATERTOWN      CLOUDY    63  52  68 SE6       29.69S THUNDER
MONROE         LGT RAIN  59  48  67 SW8       29.72R
JANESVILLE     CLOUDY    57  57 100 CALM      29.71F
$$

WIZ051-052-058>065-066-070>072-232200-
SOUTHEAST WISCONSIN

CITY           SKY/WX    TMP DP  RH WIND       PRES   REMARKS
MILWAUKEE      CLOUDY    62  54  74 SE7       29.72S
WAUKESHA       LGT RAIN  57  55  94 SE5       29.73S
MILWAUKEE/TIMM CLOUDY    59  54  82 S6        29.73S
RACINE         LGT RAIN  57  53  86 S12       29.74S
KENOSHA        LGT RAIN  60  55  83 SE14      29.72F
FOND DU LAC    RAIN      54  51  90 NE10      29.73S FOG
SHEBOYGAN      CLOUDY    50  50 100 NE9       29.74S FOG
WEST BEND      CLOUDY    59  54  82 SE12      29.70F
JUNEAU         CLOUDY    60  53  77 CALM      29.70F
$$

LSZ147-162-232200-
LAKE SUPERIOR

STATION/POSITION TIME  TEMP    WIND        PRES    WAVE
                       AIR SEA DIR/SP/G            HT/PER
                 (UTC) (F)     (DEG/KT/KT) (MB)    (FT/S)
W MID LAKE BUOY  1950   40 37  360/  4/  6 1012.8F   0
DEVILS ISLAND    2000   43      60/ 15/ 16 1012.8S
PORT WING        2040   45      20/ 17/ 19 1011.9S
SAXON HARBOR     2030   42      20/  6/  9 1011.9S
$$

LMZ867-665-643>646-232200-
LAKE MICHIGAN

STATION/POSITION TIME  TEMP    WIND        PRES    WAVE
                       AIR SEA DIR/SP/G            HT/PER
                 (UTC) (F)     (DEG/KT/KT) (MB)    (FT/S)
CHAMBERS ISLAND  2040   49      30/  8/ 10 1008.5F
N MID LAKE BUOY  2050   43 39  350/  4/  4 1009.7F   0
NORTHPORT PIER   2040   50     320/  6/  7 1009.1S
KEWAUNEE LAKESHO 2048   47      30/  8/ 12 1008.2F
SHEBOYGAN LAKESH 2100   45      10/ 14/ 17 1007.4F
PORT WASHINGTON  2030   48      40/  9/ 10 1007.8F
ATWATER BUOY     2009   50     130/  8/ 10 1006.8F
MILWAUKEE LAKESH 2050   54     140/  9/ 11   N/A
S MID LAKE BUOY  1950   48 45  120/ 10/ 10 1007.9F   0
KENOSHA   LAKESH 2100   51     180/ 11/ 14 1006.8
$$

TC  - TEMPERATURE IN CELSIUS
VSB - VISIBILITY IN STATUTE MILES
WCI - WIND CHILL INDEX
HX  - HEAT INDEX





USA.gov is the U.S. government's official web portal to all federal, state and local government web resources and services.